TimeCST,TemperatureF,Dew PointF,Humidity,Sea Level PressureIn,VisibilityMPH,Wind Direction,Wind SpeedMPH,Gust SpeedMPH,PrecipitationIn,Events,Conditions,WindDirDegrees,DateUTC
12:53 AM,66.0,60.1,81,30.23,10.0,Calm,Calm,-,N/A,,Mostly Cloudy,0,2013-02-03 06:53:00
1:53 AM,63.0,59.0,87,30.22,10.0,ESE,4.6,-,N/A,,Partly Cloudy,120,2013-02-03 07:53:00
2:53 AM,63.0,59.0,87,30.22,10.0,East,4.6,-,N/A,,Mostly Cloudy,100,2013-02-03 08:53:00
3:53 AM,64.0,60.1,87,30.22,10.0,Calm,Calm,-,N/A,,Mostly Cloudy,0,2013-02-03 09:53:00
4:53 AM,63.0,59.0,87,30.23,10.0,Calm,Calm,-,N/A,,Scattered Clouds,0,2013-02-03 10:53:00
5:53 AM,62.1,57.9,86,30.24,9.0,Calm,Calm,-,N/A,,Scattered Clouds,0,2013-02-03 11:53:00
6:53 AM,61.0,57.0,87,30.25,9.0,East,4.6,-,N/A,,Partly Cloudy,90,2013-02-03 12:53:00
7:53 AM,62.1,60.1,93,30.26,5.0,SE,3.5,-,N/A,,Scattered Clouds,130,2013-02-03 13:53:00
8:53 AM,70.0,61.0,73,30.27,10.0,ESE,4.6,-,N/A,,Clear,110,2013-02-03 14:53:00
9:53 AM,73.0,57.9,59,30.28,10.0,ESE,8.1,-,N/A,,Clear,120,2013-02-03 15:53:00
10:53 AM,73.9,57.9,57,30.28,9.0,East,6.9,-,N/A,,Clear,100,2013-02-03 16:53:00
11:53 AM,75.0,55.9,51,30.26,10.0,East,8.1,-,N/A,,Clear,90,2013-02-03 17:53:00
12:53 PM,75.0,57.9,55,30.22,9.0,ENE,10.4,-,N/A,,Clear,70,2013-02-03 18:53:00
1:53 PM,73.9,57.9,57,30.19,10.0,ENE,12.7,-,N/A,,Clear,60,2013-02-03 19:53:00
2:53 PM,73.0,55.9,55,30.16,9.0,East,17.3,-,N/A,,Clear,80,2013-02-03 20:53:00
3:53 PM,73.0,57.9,59,30.14,9.0,ENE,12.7,-,N/A,,Clear,70,2013-02-03 21:53:00
4:53 PM,71.1,60.1,68,30.13,10.0,ENE,12.7,-,N/A,,Clear,70,2013-02-03 22:53:00
5:53 PM,70.0,60.1,71,30.12,10.0,East,11.5,-,N/A,,Clear,80,2013-02-03 23:53:00
6:53 PM,68.0,60.1,76,30.10,10.0,East,10.4,-,N/A,,Clear,80,2013-02-04 00:53:00
7:53 PM,68.0,60.1,76,30.10,10.0,East,10.4,-,N/A,,Clear,100,2013-02-04 01:53:00
8:53 PM,68.0,57.9,70,30.10,10.0,ESE,13.8,-,N/A,,Clear,110,2013-02-04 02:53:00
9:53 PM,69.1,57.9,68,30.08,10.0,ESE,11.5,-,N/A,,Clear,120,2013-02-04 03:53:00
10:53 PM,68.0,57.9,70,30.07,10.0,SE,11.5,-,N/A,,Clear,130,2013-02-04 04:53:00
11:53 PM,66.9,57.0,70,30.04,10.0,SE,10.4,-,N/A,,Clear,140,2013-02-04 05:53:00